Weather History for PAPH - January, 2014

Change the Weather History Date:

Thursday, January 30, 2014

  Actual Average Record
Temperature  
Mean Temperature 44 °F -  
Max Temperature 48 °F 27 °F 48 °F (2014)
Min Temperature 41 °F 17 °F -14 °F (1999)
Degree Days  
Heating Degree Days 20    
Moisture  
Dew Point 35 °F    
Average Humidity 71    
Maximum Humidity 76    
Minimum Humidity 60    
Precipitation  
Precipitation 0.00 in - - ()
Sea Level Pressure  
Sea Level Pressure 29.92 in    
Wind  
Wind Speed 19 mph (ESE)    
Max Wind Speed 28 mph    
Max Gust Speed 34 mph    
Visibility 10 miles    
Events      
Averages and records for this station are not official NWS values.
T = Trace of Precipitation, MM = Missing Value Source: NWS Daily Summary

Daily Weather History Graph

Daily Weather History Graph

Search for Another Location

Airport or City:

Trip Planner

Search our weather history database for the weather conditions in past years. The results will help you decide how hot, cold, wet, or windy it might be!

Date:

Astronomy

Jan. 30, 2014 Rise Set
Actual Time 9:36 AM AKST 5:59 PM AKST
Civil Twilight 8:54 AM AKST 6:42 PM AKST
Nautical Twilight 8:07 AM AKST 7:29 PM AKST
Astronomical Twilight 7:23 AM AKST 8:13 PM AKST
Moon 9:00 AM AKST (1/30) 6:40 PM AKST (1/30)
Length of Visible Light 9h 48m
Length of Day
8h 23m
Waning Crescent, 0% of the Moon is Illuminated
Jan 30
Waning Crescent
Jan 30
New
Feb 6
First Quarter
Feb 14
Full
Feb 22
Last Quarter

Hourly Weather History & Observations

Time (AKST) Temp. Windchill Dew Point Humidity Pressure Visibility Wind Dir Wind Speed Gust Speed Precip Events Conditions
12:16 AM 44.6 °F 35.9 °F 35.6 °F 71% 29.80 in 10.0 mi ESE 23.0 mph 32.2 mph N/A   Clear
12:36 AM 44.6 °F 36.4 °F 35.6 °F 71% 29.82 in 10.0 mi ESE 20.7 mph 27.6 mph N/A   Clear
12:56 AM 44.6 °F 36.1 °F 35.6 °F 71% 29.83 in 10.0 mi ESE 21.9 mph 26.5 mph N/A   Partly Cloudy
1:16 AM 42.8 °F 34.8 °F 35.6 °F 76% 29.83 in 10.0 mi East 17.3 mph - N/A   Mostly Cloudy
1:36 AM 42.8 °F 34.8 °F 35.6 °F 76% 29.82 in 10.0 mi SE 17.3 mph - N/A   Overcast
1:56 AM 42.8 °F 34.5 °F 35.6 °F 76% 29.82 in 10.0 mi SE 18.4 mph 27.6 mph N/A   Scattered Clouds
2:16 AM 42.8 °F 33.8 °F 35.6 °F 76% 29.82 in 10.0 mi SE 21.9 mph 26.5 mph N/A   Clear
2:36 AM 44.6 °F 35.3 °F 35.6 °F 71% 29.81 in 10.0 mi SE 26.5 mph 31.1 mph N/A   Clear
2:56 AM - - - N/A% 29.80 in 10.0 mi SE 27.6 mph 34.5 mph N/A   Scattered Clouds
3:16 AM 44.6 °F 35.1 °F 35.6 °F 71% 29.82 in 10.0 mi SE 27.6 mph 34.5 mph N/A   Partly Cloudy
3:36 AM 44.6 °F 35.9 °F 35.6 °F 71% 29.83 in 10.0 mi SE 23.0 mph 31.1 mph N/A   Partly Cloudy
3:56 AM 44.6 °F 35.9 °F 35.6 °F 71% 29.83 in 10.0 mi SE 23.0 mph 31.1 mph N/A   Partly Cloudy
4:16 AM 42.8 °F 33.5 °F 35.6 °F 76% 29.83 in 10.0 mi SE 23.0 mph 28.8 mph N/A   Partly Cloudy
4:36 AM 44.6 °F 35.9 °F 35.6 °F 71% 29.83 in 10.0 mi SE 23.0 mph - N/A   Partly Cloudy
4:56 AM 44.6 °F 36.6 °F 35.6 °F 71% 29.84 in 10.0 mi ESE 19.6 mph - N/A   Mostly Cloudy
5:16 AM 44.6 °F 37.8 °F 35.6 °F 71% 29.85 in 10.0 mi ESE 15.0 mph - N/A   Overcast
5:36 AM 44.6 °F 37.8 °F 35.6 °F 71% 29.85 in 10.0 mi ESE 15.0 mph 21.9 mph N/A   Overcast
5:56 AM 44.6 °F 37.8 °F 35.6 °F 71% 29.86 in 10.0 mi East 15.0 mph 20.7 mph N/A   Overcast
6:16 AM 44.6 °F 38.1 °F 35.6 °F 71% 29.86 in 10.0 mi East 13.8 mph 19.6 mph N/A   Overcast
6:36 AM 44.6 °F 38.4 °F 35.6 °F 71% 29.87 in 10.0 mi East 12.7 mph - N/A   Overcast
6:56 AM 44.6 °F 39.2 °F 35.6 °F 71% 29.87 in 10.0 mi East 10.4 mph - N/A   Overcast
7:16 AM 44.6 °F 39.2 °F 35.6 °F 71% 29.87 in 10.0 mi East 10.4 mph - N/A   Overcast
7:36 AM 44.6 °F 38.8 °F 35.6 °F 71% 29.88 in 10.0 mi East 11.5 mph - N/A   Overcast
7:56 AM 44.6 °F 38.4 °F 35.6 °F 71% 29.88 in 10.0 mi East 12.7 mph - N/A   Overcast
8:16 AM 44.6 °F 38.4 °F 33.8 °F 66% 29.88 in 10.0 mi East 12.7 mph - N/A   Overcast
8:36 AM 42.8 °F 36.2 °F 33.8 °F 70% 29.88 in 10.0 mi ESE 12.7 mph - N/A   Overcast
8:56 AM 42.8 °F 35.4 °F 33.8 °F 70% 29.89 in 10.0 mi ESE 15.0 mph 19.6 mph N/A   Mostly Cloudy
9:16 AM 42.8 °F 34.8 °F 33.8 °F 70% 29.89 in 10.0 mi ESE 17.3 mph 21.9 mph N/A   Overcast
9:36 AM 42.8 °F 35.1 °F 33.8 °F 70% 29.90 in 10.0 mi ESE 16.1 mph 24.2 mph N/A   Scattered Clouds
9:56 AM 42.8 °F 35.4 °F 33.8 °F 70% 29.91 in 10.0 mi ESE 15.0 mph 20.7 mph N/A   Mostly Cloudy
10:16 AM 42.8 °F 35.4 °F 33.8 °F 70% 29.91 in 10.0 mi ESE 15.0 mph 21.9 mph N/A   Mostly Cloudy
10:36 AM 42.8 °F 35.4 °F 35.6 °F 76% 29.92 in 10.0 mi ESE 15.0 mph - N/A   Overcast
10:56 AM 42.8 °F 35.8 °F 35.6 °F 76% 29.94 in 10.0 mi East 13.8 mph 18.4 mph N/A   Overcast
11:16 AM 44.6 °F 38.1 °F 35.6 °F 71% 29.94 in 10.0 mi ESE 13.8 mph - N/A   Overcast
11:36 AM 44.6 °F 37.4 °F 35.6 °F 71% 29.94 in 10.0 mi ESE 16.1 mph 19.6 mph N/A   Mostly Cloudy
11:56 AM 44.6 °F 38.1 °F 35.6 °F 71% 29.94 in 10.0 mi ESE 13.8 mph - N/A   Mostly Cloudy
12:16 PM 44.6 °F 38.4 °F 35.6 °F 71% 29.95 in 10.0 mi ESE 12.7 mph - N/A   Overcast
12:36 PM 46.4 °F 40.4 °F 37.4 °F 71% 29.95 in 10.0 mi ESE 13.8 mph 20.7 mph N/A   Overcast
12:56 PM 46.4 °F 40.1 °F 37.4 °F 71% 29.95 in 10.0 mi ESE 15.0 mph - N/A   Overcast
1:16 PM 46.4 °F 40.1 °F 35.6 °F 66% 29.95 in 10.0 mi ESE 15.0 mph - N/A   Overcast
1:36 PM 46.4 °F 39.2 °F 37.4 °F 71% 29.94 in 10.0 mi ESE 18.4 mph 21.9 mph N/A   Overcast
1:56 PM 46.4 °F 38.7 °F 35.6 °F 66% 29.94 in 10.0 mi SE 20.7 mph - N/A   Overcast
2:16 PM 46.4 °F 39.5 °F 35.6 °F 66% 29.94 in 10.0 mi ESE 17.3 mph - N/A   Overcast
2:36 PM 44.6 °F 37.2 °F 35.6 °F 71% 29.94 in 10.0 mi ESE 17.3 mph - N/A   Overcast
2:56 PM 44.6 °F 36.6 °F 35.6 °F 71% 29.94 in 10.0 mi ESE 19.6 mph - N/A   Overcast
3:16 PM 44.6 °F 35.9 °F 35.6 °F 71% 29.93 in 10.0 mi SE 23.0 mph 28.8 mph N/A   Overcast
3:36 PM 46.4 °F 38.3 °F 35.6 °F 66% 29.93 in 10.0 mi SE 23.0 mph 27.6 mph N/A   Scattered Clouds
3:56 PM 44.6 °F 36.1 °F 35.6 °F 71% 29.94 in 10.0 mi SE 21.9 mph 26.5 mph N/A   Mostly Cloudy
4:16 PM 44.6 °F 36.6 °F 35.6 °F 71% 29.94 in 10.0 mi SE 19.6 mph - N/A   Scattered Clouds
4:36 PM 44.6 °F 36.4 °F 35.6 °F 71% 29.95 in 10.0 mi SE 20.7 mph - N/A   Scattered Clouds
4:56 PM 42.8 °F 34.3 °F 33.8 °F 70% 29.95 in 10.0 mi SE 19.6 mph - N/A   Scattered Clouds
5:16 PM 42.8 °F 34.8 °F 33.8 °F 70% 29.95 in 10.0 mi SE 17.3 mph - N/A   Clear
5:36 PM 42.8 °F 34.5 °F 33.8 °F 70% 29.96 in 10.0 mi SE 18.4 mph 23.0 mph N/A   Clear
5:56 PM 42.8 °F 34.8 °F 33.8 °F 70% 29.97 in 10.0 mi SE 17.3 mph - N/A   Scattered Clouds
6:16 PM 42.8 °F 35.1 °F 33.8 °F 70% 29.97 in 10.0 mi SE 16.1 mph - N/A   Partly Cloudy
6:36 PM 42.8 °F 34.8 °F 33.8 °F 70% 29.97 in 10.0 mi SE 17.3 mph 21.9 mph N/A   Scattered Clouds
6:56 PM 42.8 °F 34.8 °F 33.8 °F 70% 29.97 in 10.0 mi SE 17.3 mph - N/A   Overcast
7:16 PM 42.8 °F 34.3 °F 33.8 °F 70% 29.97 in 10.0 mi SE 19.6 mph - N/A   Overcast
7:36 PM 42.8 °F 35.4 °F 33.8 °F 70% 29.98 in 10.0 mi SE 15.0 mph - N/A   Mostly Cloudy
7:56 PM 41.0 °F 33.5 °F 33.8 °F 76% 30.00 in 10.0 mi SE 13.8 mph - N/A   Scattered Clouds
8:16 PM 41.0 °F 33.1 °F 33.8 °F 76% 30.00 in 10.0 mi SE 15.0 mph - N/A   Mostly Cloudy
8:36 PM 42.8 °F 35.1 °F 33.8 °F 70% 30.00 in 10.0 mi SE 16.1 mph - N/A   Overcast
8:56 PM 42.8 °F 35.8 °F 33.8 °F 70% 30.01 in 10.0 mi ESE 13.8 mph - N/A   Overcast
9:16 PM 42.8 °F 36.2 °F 33.8 °F 70% 30.01 in 10.0 mi ESE 12.7 mph - N/A   Overcast
9:36 PM 41.0 °F 33.5 °F 33.8 °F 76% 30.01 in 10.0 mi ESE 13.8 mph - N/A   Overcast
9:56 PM 42.8 °F 34.5 °F 33.8 °F 70% 30.01 in 10.0 mi SE 18.4 mph 21.9 mph N/A   Overcast
10:16 PM 42.8 °F 34.3 °F 33.8 °F 70% 30.00 in 10.0 mi SE 19.6 mph - N/A   Overcast
10:36 PM 42.8 °F 34.3 °F 33.8 °F 70% 30.00 in 10.0 mi SE 19.6 mph - N/A   Mostly Cloudy
10:56 PM 42.8 °F 34.5 °F 33.8 °F 70% 30.00 in 10.0 mi SE 18.4 mph - N/A   Mostly Cloudy
11:16 PM 42.8 °F 35.8 °F 33.8 °F 70% 30.02 in 10.0 mi SE 13.8 mph - N/A   Overcast
11:36 PM 42.8 °F 36.2 °F 33.8 °F 70% 30.04 in 10.0 mi SE 12.7 mph - N/A   Overcast
11:56 PM 42.8 °F 35.1 °F 33.8 °F 70% 30.03 in 10.0 mi SE 16.1 mph - N/A   Overcast